Weather History for KBOW - January, 2013

Change the Weather History Date:

Friday, January 4, 2013

  Actual Average Record
Temperature  
Mean Temperature 58 °F -  
Max Temperature 60 °F 74 °F 85 °F (1972)
Min Temperature 55 °F 53 °F 31 °F (1979)
Degree Days  
Heating Degree Days 8    
Growing Degree Days 8 (Base 50)    
Moisture  
Dew Point 57 °F    
Average Humidity 96    
Maximum Humidity 100    
Minimum Humidity 82    
Precipitation  
Precipitation 0.00 in - - ()
Sea Level Pressure  
Sea Level Pressure 30.24 in    
Wind  
Wind Speed 7 mph (NNE)    
Max Wind Speed 10 mph    
Max Gust Speed -    
Visibility 9 miles    
Events      
Averages and records for this station are not official NWS values.
T = Trace of Precipitation, MM = Missing Value Source: NWS Daily Summary

Daily Weather History Graph

Daily Weather History Graph

Search for Another Location

Airport or City:

Trip Planner

Search our weather history database for the weather conditions in past years. The results will help you decide how hot, cold, wet, or windy it might be!

Date:

Astronomy

Jan. 04, 2013 Rise Set
Actual Time 7:19 AM EST 5:45 PM EST
Civil Twilight 6:53 AM EST 6:11 PM EST
Nautical Twilight 6:24 AM EST 6:40 PM EST
Astronomical Twilight 5:55 AM EST 7:08 PM EST
Moon No Moon Rise 11:40 AM EST (1/4)
Length of Visible Light 11h 17m
Length of Day
10h 26m
Waning Gibbous, 55% of the Moon is Illuminated
Jan 4
Waning Gibbous
Jan 4
Last Quarter
Jan 11
New
Jan 18
First Quarter
Jan 26
Full

Hourly Weather History & Observations

Time (EST) Temp. Dew Point Humidity Pressure Visibility Wind Dir Wind Speed Gust Speed Precip Events Conditions
12:15 AM 57.2 °F 57.2 °F 100% 30.18 in 5.0 mi NNE 5.8 mph - N/A   Overcast
12:35 AM 57.2 °F 57.2 °F 100% 30.17 in 8.0 mi NE 6.9 mph - N/A   Overcast
12:55 AM 57.2 °F 57.2 °F 100% 30.17 in 10.0 mi NE 6.9 mph - N/A   Overcast
1:15 AM 57.2 °F 57.2 °F 100% 30.17 in 9.0 mi NE 6.9 mph - N/A   Overcast
1:35 AM 57.2 °F 57.2 °F 100% 30.17 in 8.0 mi NNE 5.8 mph - N/A   Overcast
1:55 AM 59.0 °F 59.0 °F 100% 30.17 in 10.0 mi North 5.8 mph - N/A   Overcast
2:15 AM 59.0 °F 59.0 °F 100% 30.17 in 10.0 mi NNE 5.8 mph - N/A   Overcast
2:35 AM 59.0 °F 59.0 °F 100% 30.17 in 9.0 mi North 10.4 mph - N/A   Overcast
2:55 AM 57.2 °F 57.2 °F 100% 30.18 in 10.0 mi North 8.1 mph - N/A   Overcast
3:35 AM 57.2 °F 57.2 °F 100% 30.18 in 10.0 mi North 9.2 mph - N/A   Overcast
4:15 AM 57.2 °F 57.2 °F 100% 30.18 in 10.0 mi North 10.4 mph - N/A   Overcast
7:15 AM 55.4 °F 55.4 °F 100% 30.23 in 2.5 mi NNE 10.4 mph - N/A   Light Drizzle
7:35 AM 55.4 °F 55.4 °F 100% 30.24 in 5.0 mi NNE 8.1 mph - N/A   Overcast
8:15 AM 55.4 °F 55.4 °F 100% 30.24 in 9.0 mi NNE 8.1 mph - N/A   Overcast
8:35 AM 55.4 °F 55.4 °F 100% 30.26 in 10.0 mi NNE 9.2 mph - N/A   Overcast
8:55 AM 55.4 °F 55.4 °F 100% 30.26 in 10.0 mi NNE 9.2 mph - N/A   Overcast
9:15 AM 55.4 °F 55.4 °F 100% 30.27 in 10.0 mi NNE 10.4 mph - N/A   Overcast
9:35 AM 55.4 °F 55.4 °F 100% 30.27 in 10.0 mi NE 8.1 mph - N/A   Overcast
9:55 AM 55.4 °F 55.4 °F 100% 30.28 in 10.0 mi NNE 9.2 mph - N/A   Overcast
10:15 AM 55.4 °F 55.4 °F 100% 30.28 in 10.0 mi NNE 6.9 mph - N/A   Overcast
10:35 AM 55.4 °F 55.4 °F 100% 30.27 in 9.0 mi NNE 9.2 mph - N/A   Overcast
10:55 AM 57.2 °F 55.4 °F 94% 30.27 in 9.0 mi NNE 6.9 mph - N/A   Overcast
11:15 AM 57.2 °F 55.4 °F 94% 30.27 in 10.0 mi NE 5.8 mph - N/A   Overcast
11:35 AM 57.2 °F 55.4 °F 94% 30.26 in 10.0 mi NNE 8.1 mph - N/A   Overcast
11:55 AM 59.0 °F 55.4 °F 88% 30.26 in 10.0 mi NNE 9.2 mph - N/A   Overcast
12:15 PM 59.0 °F 55.4 °F 88% 30.25 in 10.0 mi NNE 5.8 mph - N/A   Overcast
12:35 PM 60.8 °F 55.4 °F 82% 30.24 in 10.0 mi NNE 8.1 mph - N/A   Overcast
12:55 PM 60.8 °F 55.4 °F 82% 30.23 in 10.0 mi North 5.8 mph - N/A   Overcast
1:15 PM 60.8 °F 55.4 °F 82% 30.22 in 10.0 mi NNE 5.8 mph - N/A   Overcast
1:35 PM 60.8 °F 57.2 °F 88% 30.22 in 10.0 mi NNE 5.8 mph - N/A   Overcast
1:55 PM 60.8 °F 55.4 °F 82% 30.21 in 10.0 mi North 6.9 mph - N/A   Overcast
2:15 PM 60.8 °F 57.2 °F 88% 30.21 in 10.0 mi NNE 8.1 mph - N/A   Overcast
2:35 PM 60.8 °F 57.2 °F 88% 30.21 in 9.0 mi NNE 8.1 mph - N/A   Overcast
2:55 PM 60.8 °F 57.2 °F 88% 30.21 in 10.0 mi North 8.1 mph - N/A   Overcast
3:15 PM 60.8 °F 57.2 °F 88% 30.21 in 9.0 mi North 6.9 mph - N/A   Overcast
3:35 PM 60.8 °F 57.2 °F 88% 30.21 in 9.0 mi North 8.1 mph - N/A   Overcast
3:55 PM 59.0 °F 57.2 °F 94% 30.22 in 10.0 mi North 9.2 mph - N/A   Overcast
4:15 PM 59.0 °F 57.2 °F 94% 30.22 in 9.0 mi North 5.8 mph - N/A   Overcast
4:35 PM 59.0 °F 57.2 °F 94% 30.23 in 10.0 mi North 5.8 mph - N/A   Overcast
4:55 PM 59.0 °F 57.2 °F 94% 30.24 in 10.0 mi North 8.1 mph - N/A   Overcast
5:15 PM 59.0 °F 57.2 °F 94% 30.25 in 10.0 mi North 8.1 mph - N/A   Overcast
5:55 PM 57.2 °F 57.2 °F 100% 30.25 in 4.0 mi NNW 6.9 mph - N/A   Overcast
6:35 PM 57.2 °F 57.2 °F 100% 30.27 in 5.0 mi North 5.8 mph - N/A   Overcast
6:55 PM 57.2 °F 57.2 °F 100% 30.27 in 5.0 mi North 5.8 mph - N/A   Overcast
7:15 PM 57.2 °F 57.2 °F 100% 30.27 in 6.0 mi North 6.9 mph - N/A   Overcast
7:35 PM 57.2 °F 57.2 °F 100% 30.28 in 7.0 mi North 5.8 mph - N/A   Overcast
8:15 PM 57.2 °F 57.2 °F 100% 30.29 in 10.0 mi North 4.6 mph - N/A   Overcast
8:35 PM 57.2 °F 57.2 °F 100% 30.29 in 9.0 mi North 6.9 mph - N/A   Overcast
8:55 PM 57.2 °F 57.2 °F 100% 30.29 in 9.0 mi North 6.9 mph - N/A   Overcast
9:15 PM 57.2 °F 57.2 °F 100% 30.29 in 10.0 mi NNE 5.8 mph - N/A   Overcast
9:35 PM 57.2 °F 57.2 °F 100% 30.30 in 10.0 mi North 9.2 mph - N/A   Overcast
9:55 PM 57.2 °F 57.2 °F 100% 30.29 in 9.0 mi North 8.1 mph - N/A   Overcast
10:15 PM 57.2 °F 57.2 °F 100% 30.29 in 10.0 mi NNE 8.1 mph - N/A   Overcast
10:35 PM 57.2 °F 57.2 °F 100% 30.28 in 10.0 mi NNE 5.8 mph - N/A   Overcast
10:55 PM 57.2 °F 57.2 °F 100% 30.28 in 10.0 mi NNE 6.9 mph - N/A   Overcast
11:15 PM 57.2 °F 57.2 °F 100% 30.28 in 9.0 mi NNE 6.9 mph - N/A   Overcast
11:35 PM 57.2 °F 57.2 °F 100% 30.28 in 8.0 mi North 6.9 mph - N/A   Overcast
11:55 PM 57.2 °F 57.2 °F 100% 30.28 in 7.0 mi NNE 8.1 mph - N/A   Overcast